Location: Clifton Park
(41.4873°N, 81.8024°W)
Time: 23:58:28
(UTC+00:00)

SJ-12 - Pass Details

Date: 21 January 2020
Orbit: 569 x 585 km, 97.6° (Epoch: 23 February)

Event Time Altitude Azimuth Distance (km) Brightness Sun altitude
Rises 10:28:27 0° 15° (NNE) 2,782 7.5 -26.0°
Reaches altitude 10° 10:30:37 10° 19° (NNE) 1,880 6.7 -25.6°
Maximum altitude 10:34:40 62° 101° (E) 645 4.3 -24.8°
Drops below altitude 10° 10:38:40 10° 182° (S) 1,871 6.6 -24.1°
Sets 10:40:50 0° 186° (S) 2,766 7.4 -23.7°
